weather.gov     
National Weather Service

Weather Roundup
NWS Homepage
This page is being discontinued on March 12, 2014.
The same data is available at this site. Please update your bookmarks.
Thank you, and we apologize for the inconvenience.
Please send an email to SR-SRH.Webmaster@noaa.gov with any concerns.


Current Version
Previous Version:    01  02  03  04  05  06  07  08  09  10  11  12  13  14  15  16  17  18  19  20  21  22  23  24  25  26  27  28  29  30  
   31  32  33  34  35  36  37  38  39  40  41  42  43  44  45  46  47  48  49  50  51  52  53  54  55  56  57  58  59  60  
[Printable]
247
NZUS59 KLOT 200810
HRRLOT

CHICAGO AREA WEATHER ROUNDUP
NATIONAL WEATHER SERVICE CHICAGO/ROMEOVILLE IL
200 AM CST SAT DEC 20 2014

NOTE: "FAIR" INDICATES FEW OR NO CLOUDS BELOW 12,000 FEET WITH NO
SIGNIFICANT WEATHER AND/OR OBSTRUCTIONS TO VISIBILITY.

* THESE STATIONS ARE NOT UNDER NWS QUALITY CONTROL. THEY ALSO MAY NOT
  REPORT WEATHER SUCH AS PRECIPITATION OR FOG.

ILZ005-006-012>014-019>023-200900-
NORTHEAST ILLINOIS

CITY           SKY/WX    TMP DP  RH WIND       PRES   REMARKS
OHARE          CLOUDY    29  23  78 CALM      30.27R
MIDWAY         CLOUDY    32  25  75 SW6       30.28R WCI  26
AURORA         CLOUDY    26  22  84 CALM      30.27S FOG
LANSING*       CLOUDY    30  26  85 CALM      30.29R
JOLIET*        CLOUDY    28  24  86 CALM      30.29R
WAUKEGAN       CLOUDY    27  21  78 CALM      30.27R
DUPAGE AIRPORT CLOUDY    27  23  85 CALM      30.27R
WHEELING       CLOUDY    29  23  78 CALM      30.29S
KANKAKEE*      CLOUDY    29  27  93 CALM      30.29S
MORRIS*        CLOUDY    26  25  95 CALM      30.27S
LEWIS AIRPORT* CLOUDY    29  26  87 CALM      30.28R
NORTHERLY IS     N/A     32  24  73 W2          N/A
$$

WIZ051-052-058>065-066-070>072-200900-
SOUTHEAST WISCONSIN

CITY           SKY/WX    TMP DP  RH WIND       PRES   REMARKS
MILWAUKEE      CLOUDY    28  19  69 W5        30.27R WCI  23
KENOSHA*       CLOUDY    27  21  78 W3        30.27R
RACINE*        CLOUDY    28  21  75 W3        30.28S
BURLINGTON     CLOUDY    25  20  82 W5        30.27R WCI  19
WAUKESHA       CLOUDY    25  19  80 CALM      30.27R
WEST BEND      CLOUDY    23  19  86 CALM      30.26R
$$

INZ001>003-010>013-019-020-200900-
NORTHWEST INDIANA

CITY           SKY/WX    TMP DP  RH WIND       PRES   REMARKS
GARY*          CLOUDY    33  20  59 CALM      30.29S
MICHIGAN CITY* NOT AVBL
RENSSELAER*    NOT AVBL
VALPARAISO     CLOUDY    30  23  75 W6        30.28R WCI  24
$$

LMZ740>746-200900-
SOUTHERN LAKE MICHIGAN

STATION/POSITION TIME  SKY/WX   TEMP WIND        PRES    VSBY
                                AIR  DIR/SP/G
                 (UTC)          (F)  (DEG/KT/KT) (MB)    (MI)
HARRISON CRIB    0800            32  200/  9/ 10   N/A
BURNHAM HARBOR   0800            32  180/  3/  7   N/A
CALUMET HARBOR   0800            31  220/  5/  7 1024.1R
BURNS HARBOR     NOT AVBL
MICHIGAN CITY    NOT AVBL
$$

ABBREVIATIONS USED IN REMARKS
   TC - TEMPERATURE IN CELSIUS
  WCI - WIND CHILL INDEX
   HX - HEAT INDEX
  VSB - VISIBILITY
$$




U.S. Dept. of Commerce
NOAA National Weather Service
1325 East West Highway
Silver Spring, MD 20910
E-mail: w-nws.webmaster@noaa.gov
Page last modified: May 16, 2007
NATIONAL WEATHER SERVICE: for Safety, for Work, for Fun - FOR LIFE